"read_dt","SO2 (ppb)","flags","PMT voltage (V)","lamp voltage (V)","lamp intensity (Hz)","internal temp (C)","react chamber temp (C)","sample flow (l/min)","pres (mmHg)","SO2 bkg (ppb)","SO2 coefficient"
2017-05-05 00:00:00,1662E-3,5C000400,-0724,0835,12068,030.2,045.5,0.216,763.1,01.16,0.508
2017-05-05 00:01:00,1633E-3,5C000400,-0724,0835,11130,030.3,045.5,0.217,763.1,01.16,0.508
2017-05-05 00:02:00,1707E-3,5C000400,-0724,0834,12056,030.3,045.5,0.217,763.1,01.16,0.508
2017-05-05 00:03:00,1527E-3,5C000400,-0724,0834,12220,030.3,045.5,0.217,763.1,01.16,0.508
2017-05-05 00:04:00,1707E-3,5C000400,-0724,0835,12135,030.3,045.5,0.217,763.1,01.16,0.508
2017-05-05 00:05:00,1711E-3,5C000400,-0724,0835,12344,030.3,045.5,0.216,763.1,01.16,0.508
2017-05-05 00:06:00,1677E-3,5C000400,-0724,0835,12231,030.3,045.5,0.216,763.1,01.16,0.508
2017-05-05 00:07:00,1856E-3,5C000400,-0724,0834,12324,030.3,045.5,0.216,763.1,01.16,0.508
2017-05-05 00:08:00,1648E-3,5C000400,-0724,0835,12189,030.3,045.5,0.216,763.1,01.16,0.508
2017-05-05 00:09:00,1859E-3,5C000400,-0724,0834,12138,030.3,045.5,0.216,763.1,01.16,0.508
2017-05-05 00:10:00,1649E-3,5C000400,-0724,0834,12160,030.3,045.5,0.216,763.0,01.16,0.508
2017-05-05 00:11:00,1686E-3,5C000400,-0724,0835,12035,030.3,045.5,0.216,763.1,01.16,0.508
2017-05-05 00:12:00,1535E-3,5C000400,-0724,0835,12217,030.3,045.5,0.216,763.1,01.16,0.508
2017-05-05 00:13:00,1665E-3,5C000400,-0724,0834,12278,030.3,045.5,0.216,763.1,01.16,0.508
2017-05-05 00:14:00,1689E-3,5C000400,-0724,0835,12073,030.3,045.5,0.216,763.1,01.16,0.508
2017-05-05 00:15:00,1740E-3,5C000400,-0724,0835,12068,030.3,045.5,0.216,763.1,01.16,0.508
2017-05-05 00:16:00,1685E-3,5C000400,-0724,0836,11989,030.3,045.5,0.216,763.1,01.16,0.508
2017-05-05 00:17:00,1729E-3,5C000400,-0724,0834,12158,030.3,045.5,0.216,763.1,01.16,0.508
2017-05-05 00:18:00,1729E-3,5C000400,-0724,0835,12117,030.3,045.5,0.216,763.1,01.16,0.508
2017-05-05 00:19:00,1683E-3,5C000400,-0724,0834,12022,030.3,045.5,0.216,763.1,01.16,0.508
2017-05-05 00:20:00,1736E-3,5C000400,-0724,0835,12267,030.3,045.5,0.217,763.1,01.16,0.508
2017-05-05 00:21:00,1650E-3,5C000400,-0724,0835,12124,030.3,045.5,0.217,763.2,01.16,0.508
2017-05-05 00:22:00,1664E-3,5C000400,-0724,0836,12134,030.3,045.5,0.216,763.1,01.16,0.508
2017-05-05 00:23:00,1776E-3,5C000400,-0724,0833,12151,030.3,045.5,0.216,763.1,01.16,0.508
2017-05-05 00:24:00,1570E-3,5C000400,-0724,0834,12114,030.3,045.5,0.216,763.2,01.16,0.508
2017-05-05 00:25:00,1638E-3,5C000400,-0724,0836,12177,030.3,045.5,0.216,763.2,01.16,0.508
2017-05-05 00:26:00,1662E-3,5C000400,-0724,0834,12081,030.3,045.5,0.216,763.2,01.16,0.508
2017-05-05 00:27:00,1654E-3,5C000400,-0724,0835,11935,030.3,045.5,0.216,763.2,01.16,0.508
2017-05-05 00:28:00,1626E-3,5C000410,-0724,0837,12304,030.3,045.5,0.216,763.2,01.16,0.508
2017-05-05 00:29:00,1719E-3,5C000400,-0724,0835,11929,030.3,045.5,0.216,763.2,01.16,0.508
2017-05-05 00:30:00,1705E-3,5C000400,-0724,0835,12198,030.3,045.5,0.216,763.2,01.16,0.508
2017-05-05 00:31:00,1639E-3,5C000400,-0724,0836,11930,030.3,045.5,0.216,763.1,01.16,0.508
2017-05-05 00:32:00,1793E-3,5C000400,-0724,0835,12061,030.3,045.5,0.216,763.1,01.16,0.508
2017-05-05 00:33:00,1673E-3,5C000400,-0724,0834,12157,030.3,045.5,0.216,763.1,01.16,0.508
2017-05-05 00:34:00,1702E-3,5C000400,-0724,0835,12172,030.3,045.5,0.216,763.1,01.16,0.508
2017-05-05 00:35:00,1699E-3,5C000400,-0724,0835,12163,030.3,045.5,0.216,763.2,01.16,0.508
2017-05-05 00:36:00,1656E-3,5C000400,-0724,0836,12145,030.3,045.5,0.216,763.1,01.16,0.508
2017-05-05 00:37:00,1662E-3,5C000400,-0724,0835,12194,030.3,045.5,0.216,763.2,01.16,0.508
2017-05-05 00:38:00,1638E-3,5C000400,-0724,0835,12136,030.3,045.5,0.216,763.1,01.16,0.508
2017-05-05 00:39:00,1630E-3,5C000400,-0724,0833,12166,030.3,045.5,0.216,763.2,01.16,0.508
2017-05-05 00:40:00,1771E-3,5C000410,-0724,0839,12496,030.3,045.5,0.216,763.2,01.16,0.508
2017-05-05 00:41:00,1756E-3,5C000400,-0724,0835,12315,030.3,045.5,0.216,763.2,01.16,0.508
2017-05-05 00:42:00,1577E-3,5C000400,-0724,0833,12034,030.3,045.5,0.216,763.2,01.16,0.508
2017-05-05 00:43:00,1722E-3,5C000400,-0724,0836,12040,030.3,045.5,0.216,763.1,01.16,0.508
2017-05-05 00:44:00,1771E-3,5C000400,-0724,0837,12344,030.3,045.5,0.216,763.1,01.16,0.508
2017-05-05 00:45:00,1735E-3,5C000400,-0724,0835,12101,030.3,045.5,0.216,763.2,01.16,0.508
2017-05-05 00:46:00,1708E-3,5C000400,-0724,0835,12102,030.3,045.5,0.216,763.2,01.16,0.508
2017-05-05 00:47:00,1731E-3,5C000400,-0724,0835,12176,030.4,045.5,0.216,763.2,01.16,0.508
2017-05-05 00:48:00,1756E-3,5C000400,-0724,0835,12023,030.4,045.5,0.216,763.2,01.16,0.508
2017-05-05 00:49:00,1695E-3,5C000400,-0724,0836,12098,030.4,045.5,0.216,763.2,01.16,0.508
2017-05-05 00:50:00,1785E-3,5C000400,-0724,0834,11994,030.4,045.5,0.216,763.2,01.16,0.508
2017-05-05 00:51:00,1876E-3,5C000400,-0724,0836,12053,030.4,045.5,0.216,763.2,01.16,0.508
2017-05-05 00:52:00,1716E-3,5C000400,-0724,0835,12083,030.4,045.5,0.216,763.2,01.16,0.508
2017-05-05 00:53:00,1715E-3,5C000400,-0724,0835,10005,030.4,045.5,0.216,763.2,01.16,0.508
2017-05-05 00:54:00,1727E-3,5C000400,-0724,0838,12226,030.4,045.5,0.216,763.2,01.16,0.508
2017-05-05 00:55:00,1723E-3,5C000400,-0724,0835,11927,030.4,045.5,0.216,763.2,01.16,0.508
2017-05-05 00:56:00,1639E-3,5C000400,-0724,0835,12108,030.4,045.5,0.216,763.2,01.16,0.508
2017-05-05 00:57:00,1708E-3,5C000400,-0724,0834,12112,030.4,045.5,0.216,763.2,01.16,0.508
2017-05-05 00:58:00,1684E-3,5C000400,-0724,0834,12203,030.4,045.5,0.216,763.1,01.16,0.508
2017-05-05 00:59:00,1526E-3,5C000400,-0724,0834,12254,030.4,045.5,0.216,763.2,01.16,0.508
2017-05-05 01:00:00,1683E-3,5C000400,-0724,0834,11887,030.4,045.5,0.216,763.2,01.16,0.508
2017-05-05 01:01:00,1656E-3,5C000400,-0724,0838,11902,030.4,045.5,0.216,763.2,01.16,0.508
2017-05-05 01:02:00,1557E-3,5C000400,-0724,0836,12212,030.4,045.5,0.216,763.1,01.16,0.508
2017-05-05 01:03:00,1785E-3,5C000400,-0724,0836,12035,030.4,045.5,0.216,763.1,01.16,0.508
2017-05-05 01:04:00,1710E-3,5C000400,-0724,0834,12086,030.4,045.5,0.216,763.2,01.16,0.508
2017-05-05 01:05:00,1746E-3,5C000400,-0724,0835,11933,030.4,045.5,0.216,763.1,01.16,0.508
2017-05-05 01:06:00,1770E-3,5C000400,-0724,0834,11894,030.4,045.5,0.216,763.1,01.16,0.508
2017-05-05 01:07:00,1696E-3,5C000400,-0724,0835,12192,030.4,045.5,0.216,763.1,01.16,0.508
2017-05-05 01:08:00,1618E-3,5C000400,-0724,0838,12244,030.4,045.5,0.216,763.2,01.16,0.508
2017-05-05 01:09:00,1701E-3,5C000400,-0724,0836,12277,030.4,045.5,0.216,763.1,01.16,0.508
2017-05-05 01:10:00,1644E-3,5C000400,-0724,0833,12079,030.4,045.5,0.217,763.1,01.16,0.508
2017-05-05 01:11:00,1755E-3,5C000400,-0724,0834,10901,030.4,045.5,0.217,763.1,01.16,0.508
2017-05-05 01:12:00,1600E-3,5C000400,-0724,0835,12071,030.4,045.5,0.216,763.1,01.16,0.508
2017-05-05 01:13:00,1704E-3,5C000400,-0724,0835,12048,030.4,045.5,0.216,763.1,01.16,0.508
2017-05-05 01:14:00,1791E-3,5C000400,-0724,0836,12232,030.4,045.5,0.216,763.1,01.16,0.508
2017-05-05 01:15:00,1802E-3,5C000400,-0724,0835,12188,030.4,045.5,0.216,763.1,01.16,0.508
2017-05-05 01:16:00,1668E-3,5C000400,-0724,0834,12051,030.4,045.5,0.216,763.1,01.16,0.508
2017-05-05 01:17:00,1668E-3,5C000400,-0724,0837,12155,030.4,045.5,0.216,763.1,01.16,0.508
2017-05-05 01:18:00,1714E-3,5C000400,-0724,0835,12124,030.4,045.5,0.216,763.1,01.16,0.508
2017-05-05 01:19:00,1745E-3,5C000400,-0724,0834,12271,030.4,045.5,0.216,763.1,01.16,0.508
2017-05-05 01:20:00,1707E-3,5C000400,-0724,0835,12118,030.4,045.5,0.216,763.1,01.16,0.508
2017-05-05 01:21:00,1718E-3,5C000400,-0724,0835,12164,030.4,045.5,0.216,763.0,01.16,0.508
2017-05-05 01:22:00,1800E-3,5C000400,-0724,0833,11958,030.4,045.5,0.216,763.0,01.16,0.508
2017-05-05 01:23:00,1576E-3,5C000400,-0724,0834,12068,030.4,045.5,0.216,763.0,01.16,0.508
2017-05-05 01:24:00,1600E-3,5C000400,-0724,0836,12027,030.4,045.5,0.216,763.0,01.16,0.508
2017-05-05 01:25:00,1710E-3,5C000400,-0724,0835,12078,030.4,045.5,0.216,763.0,01.16,0.508
2017-05-05 01:26:00,1719E-3,5C000400,-0724,0833,12111,030.4,045.5,0.216,763.1,01.16,0.508
2017-05-05 01:27:00,1707E-3,5C000400,-0724,0835,12147,030.5,045.5,0.216,763.0,01.16,0.508
2017-05-05 01:28:00,1672E-3,5C000400,-0724,0835,12207,030.5,045.5,0.216,763.0,01.16,0.508
2017-05-05 01:29:00,1740E-3,5C000400,-0724,0835,12021,030.5,045.5,0.216,763.0,01.16,0.508
2017-05-05 01:30:00,1553E-3,5C000400,-0724,0835,12152,030.5,045.5,0.216,763.0,01.16,0.508
2017-05-05 01:31:00,1718E-3,5C000400,-0724,0835,12106,030.5,045.5,0.216,763.1,01.16,0.508
2017-05-05 01:32:00,1740E-3,5C000400,-0724,0836,12177,030.5,045.5,0.216,763.0,01.16,0.508
2017-05-05 01:33:00,1619E-3,5C000400,-0724,0835,12136,030.5,045.5,0.216,763.0,01.16,0.508
2017-05-05 01:34:00,1697E-3,5C000400,-0724,0835,12081,030.5,045.5,0.216,763.0,01.16,0.508
2017-05-05 01:35:00,1691E-3,5C000400,-0724,0835,12042,030.5,045.5,0.216,763.0,01.16,0.508
2017-05-05 01:36:00,1738E-3,5C000400,-0724,0835,12176,030.5,045.5,0.216,763.0,01.16,0.508
2017-05-05 01:37:00,1717E-3,5C000400,-0724,0836,11952,030.5,045.5,0.216,763.0,01.16,0.508
2017-05-05 01:38:00,1735E-3,5C000400,-0724,0836,12187,030.5,045.5,0.216,763.0,01.16,0.508
2017-05-05 01:39:00,1620E-3,5C000400,-0724,0834,12008,030.5,045.5,0.216,763.0,01.16,0.508
2017-05-05 01:40:00,1654E-3,5C000400,-0724,0835,12085,030.5,045.5,0.216,763.0,01.16,0.508
2017-05-05 01:41:00,1778E-3,5C000400,-0724,0835,11931,030.5,045.5,0.216,763.0,01.16,0.508
2017-05-05 01:42:00,1741E-3,5C000400,-0724,0835,12101,030.5,045.5,0.216,763.0,01.16,0.508
2017-05-05 01:43:00,1701E-3,5C000400,-0724,0835,12065,030.5,045.5,0.216,763.0,01.16,0.508
2017-05-05 01:44:00,1683E-3,5C000400,-0724,0835,12046,030.5,045.5,0.216,763.0,01.16,0.508
2017-05-05 01:45:00,1633E-3,5C000400,-0724,0836,11072,030.5,045.5,0.216,763.0,01.16,0.508
2017-05-05 01:46:00,1664E-3,5C000400,-0724,0836,12009,030.5,045.5,0.216,763.0,01.16,0.508
2017-05-05 01:47:00,1679E-3,5C000400,-0724,0836,12166,030.5,045.5,0.216,763.0,01.16,0.508
2017-05-05 01:48:00,1613E-3,5C000400,-0724,0835,12027,030.5,045.5,0.216,763.0,01.16,0.508
2017-05-05 01:49:00,1659E-3,5C000400,-0724,0836,12042,030.5,045.5,0.216,763.0,01.16,0.508
2017-05-05 01:50:00,1634E-3,5C000400,-0724,0836,12067,030.5,045.5,0.216,763.0,01.16,0.508
2017-05-05 01:51:00,1774E-3,5C000400,-0724,0835,11816,030.5,045.5,0.216,763.0,01.16,0.508
2017-05-05 01:52:00,1763E-3,5C000400,-0724,0835,12051,030.6,045.5,0.216,763.0,01.16,0.508
2017-05-05 01:53:00,1590E-3,5C000400,-0724,0835,12236,030.6,045.5,0.216,763.0,01.16,0.508
2017-05-05 01:54:00,1710E-3,5C000400,-0724,0835,11942,030.6,045.5,0.216,763.0,01.16,0.508
2017-05-05 01:55:00,1592E-3,5C000400,-0724,0835,12041,030.6,045.5,0.216,763.0,01.16,0.508
2017-05-05 01:56:00,1656E-3,5C000400,-0724,0837,12179,030.6,045.5,0.215,763.0,01.16,0.508
2017-05-05 01:57:00,1699E-3,5C000400,-0724,0834,11993,030.6,045.5,0.215,763.0,01.16,0.508
2017-05-05 01:58:00,1668E-3,5C000400,-0724,0835,12093,030.6,045.5,0.215,763.0,01.16,0.508
2017-05-05 01:59:00,1715E-3,5C000400,-0724,0835,12268,030.6,045.5,0.215,763.0,01.16,0.508
2017-05-05 02:00:00,1771E-3,5C000400,-0724,0834,12054,030.6,045.5,0.215,763.0,01.16,0.508
2017-05-05 02:01:00,1778E-3,5C000400,-0724,0834,12104,030.6,045.5,0.216,763.0,01.16,0.508
2017-05-05 02:02:00,1804E-3,5C000400,-0724,0836,12059,030.6,045.5,0.215,763.0,01.16,0.508
2017-05-05 02:03:00,1832E-3,5C000400,-0724,0835,11963,030.6,045.5,0.216,762.9,01.16,0.508
2017-05-05 02:04:00,1604E-3,5C000400,-0724,0836,12240,030.6,045.5,0.216,763.0,01.16,0.508
2017-05-05 02:05:00,1804E-3,5C000400,-0724,0835,12182,030.6,045.5,0.216,762.9,01.16,0.508
2017-05-05 02:06:00,1795E-3,5C000400,-0724,0833,12017,030.6,045.5,0.216,763.0,01.16,0.508
2017-05-05 02:07:00,1761E-3,5C000400,-0724,0834,11998,030.6,045.5,0.216,763.0,01.16,0.508
2017-05-05 02:08:00,1616E-3,5C000400,-0724,0834,11970,030.6,045.5,0.216,763.0,01.16,0.508
2017-05-05 02:09:00,1736E-3,5C000400,-0724,0835,12108,030.6,045.5,0.216,763.0,01.16,0.508
2017-05-05 02:10:00,1640E-3,5C000400,-0724,0836,12117,030.6,045.5,0.216,762.9,01.16,0.508
2017-05-05 02:11:00,1733E-3,5C000400,-0724,0834,11958,030.6,045.5,0.216,762.9,01.16,0.508
2017-05-05 02:12:00,1576E-3,5C000400,-0724,0836,12144,030.6,045.5,0.216,763.0,01.16,0.508
2017-05-05 02:13:00,1744E-3,5C000400,-0724,0835,12116,030.6,045.5,0.216,763.0,01.16,0.508
2017-05-05 02:14:00,1743E-3,5C000400,-0724,0835,12121,030.6,045.5,0.216,763.0,01.16,0.508
2017-05-05 02:15:00,1680E-3,5C000400,-0724,0835,11990,030.6,045.5,0.216,763.0,01.16,0.508
2017-05-05 02:16:00,1697E-3,5C000400,-0724,0835,12042,030.6,045.5,0.216,763.0,01.16,0.508
2017-05-05 02:17:00,1658E-3,5C000400,-0724,0834,12340,030.6,045.5,0.216,763.0,01.16,0.508
2017-05-05 02:18:00,1637E-3,5C000400,-0724,0837,10961,030.6,045.5,0.216,763.0,01.16,0.508
2017-05-05 02:19:00,1564E-3,5C000400,-0724,0835,12231,030.6,045.5,0.216,763.0,01.16,0.508
2017-05-05 02:20:00,1631E-3,5C000400,-0724,0835,12194,030.7,045.5,0.216,763.0,01.16,0.508
2017-05-05 02:21:00,1778E-3,5C000400,-0724,0833,12169,030.7,045.5,0.216,763.0,01.16,0.508
2017-05-05 02:22:00,1665E-3,5C000400,-0724,0834,12148,030.7,045.5,0.216,763.0,01.16,0.508
2017-05-05 02:23:00,1696E-3,5C000400,-0724,0834,11947,030.7,045.5,0.216,763.0,01.16,0.508
2017-05-05 02:24:00,1723E-3,5C000400,-0724,0835,12218,030.7,045.5,0.216,763.0,01.16,0.508
2017-05-05 02:25:00,1724E-3,5C000400,-0724,0834,12095,030.7,045.5,0.216,763.0,01.16,0.508
2017-05-05 02:26:00,1851E-3,5C000400,-0724,0834,12074,030.7,045.5,0.216,763.0,01.16,0.508
2017-05-05 02:27:00,1780E-3,5C000400,-0724,0835,12253,030.7,045.5,0.216,763.0,01.16,0.508
2017-05-05 02:28:00,1684E-3,5C000400,-0724,0834,12049,030.7,045.5,0.216,763.0,01.16,0.508
2017-05-05 02:29:00,1735E-3,5C000400,-0724,0835,11936,030.7,045.5,0.216,763.0,01.16,0.508
2017-05-05 02:30:00,1756E-3,5C000400,-0724,0835,12233,030.7,045.5,0.216,763.0,01.16,0.508
2017-05-05 02:31:00,1786E-3,5C000400,-0724,0834,12079,030.7,045.5,0.216,763.0,01.16,0.508
2017-05-05 02:32:00,1621E-3,5C000400,-0724,0835,12186,030.7,045.5,0.216,762.9,01.16,0.508
2017-05-05 02:33:00,1608E-3,5C000400,-0724,0835,12121,030.7,045.5,0.216,763.0,01.16,0.508
2017-05-05 02:34:00,1730E-3,5C000400,-0724,0834,12100,030.7,045.5,0.216,763.0,01.16,0.508
2017-05-05 02:35:00,1768E-3,5C000400,-0724,0835,12207,030.7,045.5,0.216,763.0,01.16,0.508
2017-05-05 02:36:00,1666E-3,5C000400,-0724,0836,12012,030.7,045.5,0.216,762.9,01.16,0.508
2017-05-05 02:37:00,1571E-3,5C000400,-0724,0836,12185,030.7,045.5,0.216,762.9,01.16,0.508
2017-05-05 02:38:00,1558E-3,5C000400,-0724,0834,12062,030.7,045.5,0.215,762.9,01.16,0.508
2017-05-05 02:39:00,1625E-3,5C000400,-0724,0835,12188,030.7,045.5,0.215,762.9,01.16,0.508
2017-05-05 02:40:00,1622E-3,5C000400,-0724,0834,12063,030.8,045.5,0.215,762.9,01.16,0.508
2017-05-05 02:41:00,1748E-3,5C000400,-0724,0835,11022,030.7,045.5,0.215,762.9,01.16,0.508
2017-05-05 02:42:00,1696E-3,5C000400,-0724,0834,11995,030.7,045.5,0.215,762.9,01.16,0.508
2017-05-05 02:43:00,1677E-3,5C000400,-0724,0835,12028,030.7,045.5,0.215,762.9,01.16,0.508
2017-05-05 02:44:00,1691E-3,5C000400,-0724,0835,12217,030.8,045.5,0.215,762.9,01.16,0.508
2017-05-05 02:45:00,1694E-3,5C000400,-0724,0834,12083,030.8,045.5,0.215,762.9,01.16,0.508
2017-05-05 02:46:00,1767E-3,5C000400,-0724,0835,12115,030.7,045.5,0.215,762.9,01.16,0.508
2017-05-05 02:47:00,1582E-3,5C000400,-0724,0835,12036,030.8,045.5,0.215,762.9,01.16,0.508
2017-05-05 02:48:00,1611E-3,5C000400,-0724,0835,11967,030.8,045.5,0.215,762.9,01.16,0.508
2017-05-05 02:49:00,1659E-3,5C000400,-0724,0834,12237,030.8,045.5,0.215,762.9,01.16,0.508
2017-05-05 02:50:00,1709E-3,5C000400,-0724,0835,12148,030.8,045.5,0.215,762.9,01.16,0.508
2017-05-05 02:51:00,1675E-3,5C000400,-0724,0835,11907,030.8,045.5,0.215,762.9,01.16,0.508
2017-05-05 02:52:00,1619E-3,5C000400,-0724,0834,11985,030.8,045.5,0.215,762.9,01.16,0.508
2017-05-05 02:53:00,1739E-3,5C000400,-0724,0835,12090,030.8,045.5,0.215,762.9,01.16,0.508
2017-05-05 02:54:00,1642E-3,5C000400,-0724,0835,11032,030.8,045.5,0.215,762.9,01.16,0.508
2017-05-05 02:55:00,1715E-3,5C000400,-0724,0836,12219,030.8,045.5,0.215,762.9,01.16,0.508
2017-05-05 02:56:00,1649E-3,5C000400,-0724,0834,10983,030.8,045.5,0.215,762.9,01.16,0.508
2017-05-05 02:57:00,1638E-3,5C000400,-0724,0833,12040,030.8,045.5,0.215,762.9,01.16,0.508
2017-05-05 02:58:00,1644E-3,5C000400,-0724,0835,12062,030.8,045.5,0.215,762.9,01.16,0.508
2017-05-05 02:59:00,1815E-3,5C000400,-0724,0835,12035,030.8,045.5,0.215,762.9,01.16,0.508
2017-05-05 03:00:00,1671E-3,5C000400,-0724,0837,12095,030.8,045.5,0.215,762.8,01.16,0.508
2017-05-05 03:01:00,1622E-3,5C000400,-0724,0835,12164,030.8,045.5,0.215,762.9,01.16,0.508
2017-05-05 03:02:00,1688E-3,5C000400,-0724,0835,11987,030.8,045.5,0.215,762.9,01.16,0.508
2017-05-05 03:03:00,1754E-3,5C000400,-0724,0834,12214,030.8,045.5,0.215,762.9,01.16,0.508
2017-05-05 03:04:00,1610E-3,5C000400,-0724,0836,12288,030.9,045.5,0.215,762.9,01.16,0.508
2017-05-05 03:05:00,1794E-3,5C000400,-0724,0835,11903,030.8,045.5,0.215,762.9,01.16,0.508
2017-05-05 03:06:00,1688E-3,5C000400,-0724,0835,12179,030.8,045.6,0.215,762.8,01.16,0.508
2017-05-05 03:07:00,1649E-3,5C000400,-0724,0836,12021,030.9,045.5,0.215,762.9,01.16,0.508
2017-05-05 03:08:00,1648E-3,5C000400,-0724,0837,12141,030.9,045.5,0.215,762.9,01.16,0.508
2017-05-05 03:09:00,1654E-3,5C000400,-0724,0836,10914,030.9,045.5,0.215,762.9,01.16,0.508
2017-05-05 03:10:00,1737E-3,5C000400,-0724,0835,12059,030.9,045.5,0.216,762.8,01.16,0.508
2017-05-05 03:11:00,1762E-3,5C000400,-0724,0835,12166,030.9,045.5,0.216,762.8,01.16,0.508
2017-05-05 03:12:00,1748E-3,5C000400,-0724,0836,12331,030.9,045.5,0.216,762.8,01.16,0.508
2017-05-05 03:13:00,1728E-3,5C000400,-0724,0835,12218,030.9,045.6,0.216,762.8,01.16,0.508
2017-05-05 03:14:00,1684E-3,5C000400,-0724,0834,11957,030.9,045.5,0.215,762.9,01.16,0.508
2017-05-05 03:15:00,1758E-3,5C000400,-0724,0835,12039,030.9,045.5,0.215,762.8,01.16,0.508
2017-05-05 03:16:00,1663E-3,5C000400,-0724,0837,12078,030.9,045.5,0.215,762.9,01.16,0.508
2017-05-05 03:17:00,1698E-3,5C000400,-0724,0836,12231,030.9,045.5,0.215,762.8,01.16,0.508
2017-05-05 03:18:00,1704E-3,5C000400,-0724,0834,11050,030.9,045.5,0.215,762.8,01.16,0.508
2017-05-05 03:19:00,1703E-3,5C000400,-0724,0835,10961,030.9,045.5,0.215,762.8,01.16,0.508
2017-05-05 03:20:00,1758E-3,5C000400,-0724,0835,12156,030.9,045.5,0.215,762.8,01.16,0.508
2017-05-05 03:21:00,1690E-3,5C000400,-0724,0834,12065,030.9,045.5,0.215,762.9,01.16,0.508
2017-05-05 03:22:00,1887E-3,5C000400,-0724,0836,11872,030.8,045.5,0.215,762.9,01.16,0.508
2017-05-05 03:23:00,1620E-3,5C000400,-0724,0835,11914,030.7,045.5,0.215,762.9,01.16,0.508
2017-05-05 03:24:00,1577E-3,5C000400,-0724,0834,12204,030.5,045.5,0.215,762.9,01.16,0.508
2017-05-05 03:25:00,1653E-3,5C000400,-0724,0834,11963,030.3,045.5,0.215,762.9,01.16,0.508
2017-05-05 03:26:00,1725E-3,5C000400,-0724,0835,12132,030.1,045.5,0.215,762.9,01.16,0.508
2017-05-05 03:27:00,1681E-3,5C000400,-0724,0835,11986,029.9,045.5,0.216,762.9,01.16,0.508
2017-05-05 03:28:00,1633E-3,5C000400,-0724,0834,11961,029.7,045.5,0.216,762.9,01.16,0.508
2017-05-05 03:29:00,1618E-3,5C000400,-0724,0834,11992,029.6,045.5,0.216,762.9,01.16,0.508
2017-05-05 03:30:00,1689E-3,5C000400,-0724,0833,12092,029.5,045.5,0.216,762.9,01.16,0.508
2017-05-05 03:31:00,1731E-3,5C000400,-0724,0835,12188,029.4,045.5,0.217,762.9,01.16,0.508
2017-05-05 03:32:00,1628E-3,5C000400,-0724,0833,11998,029.4,045.5,0.217,762.9,01.16,0.508
2017-05-05 03:33:00,1588E-3,5C000400,-0724,0834,12163,029.4,045.5,0.217,762.8,01.16,0.508
2017-05-05 03:34:00,1617E-3,5C000400,-0724,0836,12290,029.3,045.5,0.217,762.8,01.16,0.508
2017-05-05 03:35:00,1698E-3,5C000400,-0724,0834,11985,029.3,045.5,0.217,762.8,01.16,0.508
2017-05-05 03:36:00,1767E-3,5C000400,-0724,0834,12219,029.4,045.5,0.218,762.8,01.16,0.508
2017-05-05 03:37:00,1686E-3,5C000400,-0724,0834,12163,029.4,045.5,0.218,762.8,01.16,0.508
2017-05-05 03:38:00,1796E-3,5C000400,-0724,0833,12102,029.5,045.5,0.218,762.8,01.16,0.508
2017-05-05 03:39:00,1681E-3,5C000400,-0724,0836,11083,029.5,045.5,0.218,762.8,01.16,0.508
2017-05-05 03:40:00,1728E-3,5C000400,-0724,0835,12133,029.6,045.5,0.218,762.8,01.16,0.508
2017-05-05 03:41:00,1839E-3,5C000400,-0724,0834,12234,029.6,045.5,0.218,762.8,01.16,0.508
2017-05-05 03:42:00,1623E-3,5C000400,-0724,0835,12115,029.7,045.5,0.218,762.8,01.16,0.508
2017-05-05 03:43:00,1702E-3,5C000400,-0724,0835,12154,029.7,045.5,0.218,762.8,01.16,0.508
2017-05-05 03:44:00,1726E-3,5C000400,-0724,0835,12260,029.7,045.5,0.218,762.8,01.16,0.508
2017-05-05 03:45:00,1680E-3,5C000400,-0724,0835,12104,029.8,045.5,0.218,762.8,01.16,0.508
2017-05-05 03:46:00,1609E-3,5C000400,-0724,0835,12072,029.8,045.5,0.217,762.8,01.16,0.508
2017-05-05 03:47:00,1826E-3,5C000400,-0724,0836,11023,029.8,045.5,0.217,762.8,01.16,0.508
2017-05-05 03:48:00,1787E-3,5C000400,-0724,0835,12019,029.9,045.5,0.218,762.7,01.16,0.508
2017-05-05 03:49:00,1603E-3,5C000400,-0724,0834,12103,029.9,045.5,0.218,762.7,01.16,0.508
2017-05-05 03:50:00,1672E-3,5C000400,-0724,0835,11032,030.0,045.5,0.217,762.7,01.16,0.508
2017-05-05 03:51:00,1641E-3,5C000400,-0724,0834,12290,030.0,045.5,0.217,762.8,01.16,0.508
2017-05-05 03:52:00,1687E-3,5C000400,-0724,0835,12059,030.0,045.5,0.217,762.8,01.16,0.508
2017-05-05 03:53:00,1584E-3,5C000400,-0724,0834,12137,030.1,045.5,0.217,762.7,01.16,0.508
2017-05-05 03:54:00,1569E-3,5C000400,-0724,0834,12109,030.1,045.5,0.217,762.7,01.16,0.508
2017-05-05 03:55:00,1692E-3,5C000400,-0724,0835,12191,030.1,045.5,0.217,762.7,01.16,0.508
2017-05-05 03:56:00,1834E-3,5C000400,-0724,0834,11900,030.2,045.5,0.217,762.7,01.16,0.508
2017-05-05 03:57:00,1815E-3,5C000400,-0724,0835,12068,030.2,045.5,0.217,762.7,01.16,0.508
2017-05-05 03:58:00,1575E-3,5C000400,-0724,0836,12080,030.2,045.5,0.217,762.7,01.16,0.508
2017-05-05 03:59:00,1627E-3,5C000400,-0724,0834,12074,030.3,045.5,0.217,762.7,01.16,0.508
2017-05-05 04:00:00,1744E-3,5C000400,-0724,0835,12148,030.3,045.5,0.217,762.7,01.16,0.508
2017-05-05 04:01:00,1726E-3,5C000400,-0724,0833,11926,030.3,045.5,0.217,762.7,01.16,0.508
2017-05-05 04:02:00,1717E-3,5C000400,-0724,0834,11966,030.3,045.5,0.217,762.7,01.16,0.508
2017-05-05 04:03:00,1701E-3,5C000400,-0724,0835,12077,030.4,045.5,0.217,762.7,01.16,0.508
2017-05-05 04:04:00,1866E-3,5C000400,-0724,0835,12092,030.4,045.5,0.216,762.7,01.16,0.508
2017-05-05 04:05:00,1727E-3,5C000400,-0724,0835,12053,030.4,045.5,0.216,762.7,01.16,0.508
2017-05-05 04:06:00,1651E-3,5C000400,-0724,0836,12160,030.5,045.5,0.216,762.7,01.16,0.508
2017-05-05 04:07:00,1728E-3,5C000400,-0724,0836,12179,030.5,045.5,0.216,762.7,01.16,0.508
2017-05-05 04:08:00,1682E-3,5C000400,-0724,0835,12121,030.5,045.5,0.216,762.7,01.16,0.508
2017-05-05 04:09:00,1754E-3,5C000400,-0724,0835,12003,030.5,045.5,0.216,762.7,01.16,0.508
2017-05-05 04:10:00,1620E-3,5C000400,-0724,0835,12011,030.6,045.5,0.217,762.6,01.16,0.508
2017-05-05 04:11:00,1642E-3,5C000400,-0724,0835,12171,030.6,045.5,0.216,762.6,01.16,0.508
2017-05-05 04:12:00,1797E-3,5C000400,-0724,0835,12316,030.6,045.5,0.216,762.6,01.16,0.508
2017-05-05 04:13:00,1645E-3,5C000400,-0724,0834,11978,030.6,045.5,0.216,762.6,01.16,0.508
2017-05-05 04:14:00,1704E-3,5C000400,-0724,0834,11922,030.5,045.5,0.216,762.7,01.16,0.508
2017-05-05 04:15:00,1785E-3,5C000400,-0724,0835,12019,030.4,045.5,0.216,762.7,01.16,0.508
2017-05-05 04:16:00,1616E-3,5C000400,-0724,0835,12265,030.2,045.5,0.216,762.7,01.16,0.508
2017-05-05 04:17:00,1806E-3,5C000400,-0724,0834,12116,030.0,045.5,0.216,762.7,01.16,0.508
2017-05-05 04:18:00,1625E-3,5C000400,-0724,0832,12031,029.8,045.5,0.216,762.7,01.16,0.508
2017-05-05 04:19:00,1580E-3,5C000400,-0724,0833,12209,029.7,045.5,0.216,762.7,01.16,0.508
2017-05-05 04:20:00,1688E-3,5C000400,-0724,0834,10903,029.5,045.5,0.217,762.7,01.16,0.508